sat.trackr.live / text

‹ back to catalog

STARLINK-6098

NORAD 56906 · 2023-083AG

PAYLOAD ACTIVE UNKNOWN

§ Identity

Operator
Country
US
Launch date
2023-06-12
Launch site
AFETR
Launch vehicle
Mass (kg)
RCS (m²)

Purposes: comms

External: N2YO · Heavens-Above · Gunter

§ Orbital elements

Epoch: 2026-05-25T00:15:11.668608Z

Period
94.27 min
Inclination
43.0033°
Eccentricity
0.0001284
Mean motion
15.27574126 rev/d
Perigee alt
482.2 km
Apogee alt
483.9 km
Semi-major
6,861.2 km
B*
-2.9666e-5
RAAN
359.3878°
Arg perigee
262.3347°
Mean anomaly
97.7359°
Rev number
16,347

§ Raw data

STARLINK-60981 56906U 23083AG  26145.01055172 -.00001078  00000+0 -29666-4 0  99912 56906  43.0033 359.3878 0001284 262.3347  97.7359 15.27574126163477

JSON: /api/v1/satellites/56906 · /tle

For live sub-satellite position, see the globe view (requires WebGL).

§ Visibility from observer

Set your observer location to see the next 7 days of passes ≥ 10°. The values pass through the URL so the page stays shareable.

No JS? Fill the form by hand. The geolocation button needs JavaScript.